This demonstration page uses our WeatherBlox Daily Observations layout. Learn more.

Left ArrowRight Arrow

Hourly Observations for January 12, 2020

Temp ( °F °C ) Dew Point ( °F °C ) Humidity (%) Winds ( mph kmh ) Pressure ( in mb ) Visibility ( mi km ) Precip ( " mm )
12:04 am 00:04 Cloudy 60 15.6 50 10 70 70 W 8 13 30.14 1021 10 16 0.00 0.00
12:53 am 00:53 Partly Cloudy 58 14.4 50 10 75 75 SSW 5 7 30.13 1020 10 16 0.00 0.00
1:53 am 01:53 Clear 57 13.9 50 10 78 78 Calm 30.14 1021 10 16 0.00 0.00
2:53 am 02:53 Clear 52 11.1 50 10 93 93 Calm 30.15 1021 9 14 0.00 0.00
3:48 am 03:48 Mostly Clear with Mist and Fog 50 10 48 9 94 94 Calm 30.19 1022 3 4 0.00 0.00
3:53 am 03:53 Mostly Cloudy with Mist and Fog 50 10 48 8.9 93 93 Calm 30.17 1022 1 1 0.00 0.00
3:59 am 03:59 Mostly Cloudy with Fog 49 9.4 48 8.9 97 97 Calm 30.19 1022 0 0 0.00 0.00
4:17 am 04:17 Mostly Cloudy with Fog 50 10 49 9.4 96 96 Calm 30.20 1023 1 1 0.00 0.00
4:24 am 04:24 Mostly Cloudy with Mist and Fog 50 10 49 9.4 96 96 Calm 30.20 1023 1 2 0.00 0.00
4:27 am 04:27 Mostly Cloudy with Mist and Fog 50 10 49 9.4 96 96 Calm 30.20 1023 3 5 0.00 0.00
4:35 am 04:35 Partly Cloudy 50 10 48 8.9 93 93 Calm 30.20 1023 10 16 0.00 0.00
4:41 am 04:41 Mostly Clear with Mist and Fog 49 9.4 48 8.9 97 97 Calm 30.20 1023 2 2 0.00 0.00
4:44 am 04:44 Mostly Cloudy with Mist and Fog 48 8.9 48 8.9 100 100 Calm 30.21 1023 1 1 0.00 0.00
4:48 am 04:48 Mostly Cloudy with Fog 48 9 46 8 94 94 Calm 30.21 1023 0 0 0.00 0.00
4:53 am 04:53 Mostly Cloudy with Fog 48 8.9 47 8.3 96 96 Calm 30.19 1022 0 0 0.00 0.00
5:06 am 05:06 Cloudy with Fog 48 8.9 47 8.3 96 96 Calm 30.21 1023 1 1 0.00 0.00
5:18 am 05:18 Cloudy with Fog 48 8.9 47 8.3 96 96 Calm 30.21 1023 0 0 0.00 0.00
5:44 am 05:44 Mostly Cloudy with Fog 48 8.9 47 8.3 96 96 Calm 30.23 1024 1 1 0.00 0.00
5:53 am 05:53 Mostly Cloudy with Fog 48 8.9 47 8.3 96 96 Calm 30.22 1023 1 1 0.00 0.00
6:00 am 06:00 Clear 48 8.9 47 8.3 96 96 Calm 30.24 1024 10 16 0.00 0.00
6:30 am 06:30 Mostly Cloudy 46 7.8 45 7.2 96 96 Calm 30.26 1025 1 1 0.00 0.00
6:53 am 06:53 Mostly Cloudy with Fog 46 7.8 44 6.7 93 93 Calm 30.24 1024 1 1 0.00 0.00
7:00 am 07:00 Mostly Cloudy with Fog 46 7.8 45 7.2 96 96 Calm 30.27 1025 1 1 0.00 0.00
7:16 am 07:16 Mostly Cloudy with Fog 44 6.7 43 6.1 96 96 Calm 30.27 1025 1 1 0.00 0.00
7:24 am 07:24 Mostly Cloudy with Light Rain 44 6.7 43 6.1 96 96 Calm 30.28 1025 0 0 0.00 0.00
7:53 am 07:53 Mostly Cloudy with Fog 45 7.2 43 6.1 93 93 Calm 30.26 1025 0 0 0.00 0.00
8:53 am 08:53 Mostly Cloudy with Fog 46 7.8 46 7.8 100 100 Calm 30.27 1025 0 0 0.01 0.25
8:55 am 08:55 Mostly Cloudy with Fog 46 7.8 46 7.8 100 100 Calm 30.30 1026 1 1 0.00 0.00
8:58 am 08:58 Cloudy with Fog 46 7.8 46 7.8 100 100 Calm 30.30 1026 3 4 0.00 0.00
9:11 am 09:11 Cloudy with Fog 48 8.9 47 8.3 96 96 NE 3 6 30.30 1026 1 2 0.00 0.00
9:20 am 09:20 Cloudy with Fog 48 8.9 47 8.3 96 96 Calm 30.30 1026 1 1 0.00 0.00
9:30 am 09:30 Mostly Cloudy with Fog 48 8.9 48 8.9 100 100 Calm 30.31 1027 0 0 0.00 0.00
9:53 am 09:53 Mostly Cloudy with Fog 49 9.4 48 8.9 97 97 Calm 30.30 1026 1 1 0.00 0.00
10:00 am 10:00 Mostly Cloudy with Fog 50 10 49 9.4 96 96 Calm 30.32 1027 1 2 0.00 0.00
10:06 am 10:06 Mostly Cloudy with Fog 50 10 49 9.4 96 96 Calm 30.32 1027 3 5 0.00 0.00
10:19 am 10:19 Partly Cloudy with Fog 51 10.6 50 10 96 96 Calm 30.33 1027 10 16 0.00 0.00
10:53 am 10:53 Sunny with Fog 53 11.7 50 10 89 89 Calm 30.31 1026 10 16 0.00 0.00
11:53 am 11:53 Sunny 59 15 49 9.4 69 69 Calm 30.29 1026 10 16 0.00 0.00
12:53 pm 12:53 Sunny 62 16.7 50 10 65 65 Calm 30.27 1025 10 16 0.00 0.00
1:53 pm 13:53 Sunny 64 17.8 49 9.4 58 58 undefined N/A 30.24 1024 10 16 0.00 0.00
2:53 pm 14:53 Sunny 65 18.3 50 10 59 59 W 6 9 30.23 1024 10 16 0.00 0.00
3:53 pm 15:53 Sunny 66 18.9 50 10 56 56 SSW 3 6 30.22 1024 10 16 0.00 0.00
4:53 pm 16:53 Sunny 66 18.9 50 10 56 56 S 3 6 30.24 1024 10 16 0.00 0.00
5:53 pm 17:53 Mostly Cloudy 62 16.7 52 11.1 70 70 Calm 30.25 1024 10 16 0.00 0.00
6:53 pm 18:53 Cloudy 62 16.7 53 11.7 73 73 Calm 30.27 1025 10 16 0.00 0.00
7:53 pm 19:53 Cloudy 60 15.6 54 12.2 80 80 Calm 30.27 1025 10 16 0.00 0.00
8:53 pm 20:53 Mostly Cloudy 60 15.6 54 12.2 80 80 Calm 30.29 1026 10 16 0.00 0.00
9:53 pm 21:53 Cloudy 59 15 54 12.2 83 83 Calm 30.28 1025 10 16 0.00 0.00
10:53 pm 22:53 Mostly Cloudy 59 15 55 12.8 87 87 Calm 30.30 1026 10 16 0.00 0.00
11:53 pm 23:53 Cloudy 61 16.1 55 12.8 81 81 SSE 5 7 30.28 1026 10 16 0.00 0.00

Powered by AerisWeather